Taijing-4 02A

operational
NORAD ID: 64088 Int'l Des: NNA 2025-108 Owner: WEINA Country: CN
LEOCIRCULARRETROGRADESSO

About Taijing-4 02A

Description loading...

Live Position

Loading 3D Globe...

Upcoming Passes

Altitude History

Altitude vs Time

uPlot chart will show altitude changes over time

Two-Line Element Set

1 64088U 25108B 25312.80549538 .00015199 00000-0 79902-3 0 9992
2 64088 97.4967 26.1200 0014134 59.5882 300.6745 15.15682700 25930
Epoch: Nov 8, 2025 • Age: 58 hours

Current Status

Altitude 554.3 km
Velocity 7.58 km/s
Sub-Earth Point -82.06°S, 35.82°W
Launch Date May 21, 2025
Age 0.4 years
Type other

Technical Details

Classification Payload
Mass 240.00 kg
Dry Mass 240.00 kg
Total Mass 240.00 kg
Length 1.00 m
Diameter 1.00 m
Span 6.00 m
Shape Box+3 pan
Manufacturer WEINA
Bus Type MN200S
Phase Status In Orbit
Owner/State WEINA/CN

Large Constellations

Loading constellations...